Regional Weather Roundup
Issued by NWS

Home | Current Version | Previous Version | Text Only | Print | Product List | Glossary On
Versions: 1 2 3 4 5 6 7 8 9 10 11 12 13 14 15 16 17 18 19 20 21 22 23 24 25 26 27 28 29 30 31 32 33 34 35 36 37 38 39 40 41 42 43 44 45 46 47 48 49 50
000
ASUS46 KPQR 282310
RWROR

OREGON REGIONAL WEATHER ROUNDUP
NATIONAL WEATHER SERVICE PORTLAND OR
400 PM PDT FRI AUG 28 2015

NOTE: "FAIR" INDICATES FEW OR NO CLOUDS BELOW 12,000 FEET WITH
NO SIGNIFICANT WEATHER AND/OR OBSTRUCTIONS TO VISIBILITY.

ORZ001>013-290000-
NORTHWEST OREGON


CITY           SKY/WX    TMP DP  RH WIND       PRES   REMARKS
ASTORIA        CLOUDY    68  60  75 N5        29.86F
NEWPORT        CLOUDY    63  61  94 N14       29.85F
PORTLAND       CLOUDY    81  59  47 VRB6      29.84F
VANCOUVER WA   CLOUDY    80  58  46 NW8       29.83F
SCAPPOOSE      CLOUDY    80  57  45 SE3       29.84F
HILLSBORO      CLOUDY    77  58  51 CALM      29.84F
AURORA         PTSUNNY   80  57  45 VRB5      29.83F
MCMINNVILLE    CLOUDY    78  60  53 N5        29.84F
SALEM          CLOUDY    80  58  46 N9        29.81F
CORVALLIS      CLOUDY    84  57  39 NE7       29.83F
EUGENE         CLOUDY    82  52  35 N7        29.81F
$$

ORZ021-028-290000-
SOUTHWEST OREGON


CITY           SKY/WX    TMP DP  RH WIND       PRES   REMARKS
NORTH BEND     PTSUNNY   70  63  78 N12       29.83F
BROOKINGS      CLOUDY    74  63  68 CALM      29.87F
ROSEBURG       CLOUDY    88  51  28 NW5       29.77F
SEXTON SUMMIT  CLOUDY    75  44  33 S9G17     29.95F HAZE
MEDFORD        PTSUNNY   89  46  22 N7        29.79F
$$

ORZ014>016-041-290000-
COLUMBIA GORGE


CITY           SKY/WX    TMP DP  RH WIND       PRES   REMARKS
TROUTDALE      PTSUNNY   80  56  43 NE3       29.83F
THE DALLES     CLOUDY    84  53  34 NW10      29.80F
$$

ORZ029>031-041-044-049-050-061>064-502-503-505>511-290000-
EASTERN OREGON


CITY           SKY/WX    TMP DP  RH WIND       PRES   REMARKS
REDMOND        CLOUDY    83  38  20 S7        29.89F
BEND           CLOUDY    81  37  21 S9        29.92F
PRINEVILLE     CLOUDY    84  36  17 S10G17    29.91F
KLAMATH FALLS  CLOUDY    83  42  23 S23       29.97F
LAKEVIEW       PTSUNNY   82  39  21 S14G24    30.01F
HERMISTON      CLOUDY    88  48  25 N8        29.81F
PENDLETON      CLOUDY    88  43  20 N13       29.83F
JOHN DAY       CLOUDY    83  41  22 CALM      29.98F
MEACHAM        CLOUDY    79  42  26 VRB3      29.99F
LA GRANDE      CLOUDY    81  41  24 N6        29.95F
BAKER CITY     CLOUDY    80  47  31 SW6       29.99F
BURNS          CLOUDY    84  37  18 E6        30.02F
ROME             N/A     91  32  12 W6        29.98F
ONTARIO        CLOUDY    87  45  23 N5        29.91F
$$


USA.gov is the U.S. government's official web portal to all federal, state and local government web resources and services.